Temperature
19 19 19 19 19 19 19 19 19 19 19 19 19 19 19 19 19 19 19 19 18 18 18 19 19 19 18 18 18 18 18 18 18 18 18 18 18 18 18 18 18 18 18
20 19 19 19 19 19 19 19 19 19 19 19 19 19 19 19 19 19 19 18 18 18 18 18 18 18 18 18 18 18 18 18 18 18 18 18 18 18 18 18 18 18 18
20 20 19 19 19 19 19 19 19 19 19 19 19 19 19 19 19 19 19 18 18 18 18 18 18 18 18 18 18 18 18 18 18 18 18 18 18 18 18 18 18 18 18
20 20 19 19 19 19 19 19 19 19 19 19 19 19 19 19 19 19 19 18 18 18 18 18 18 18 18 18 18 18 18 18 18 18 18 18 18 18 18 18 18 18 18
20 20 20 20 19 19 19 19 19 19 19 19 19 19 19 19 19 19 19 18 18 18 18 18 18 18 18 18 18 18 18 18 18 18 18 18 18 18 18 18 18 18 18
20 20 20 20 19 19 19 19 19 19 19 19 19 19 19 19 19 19 18 18 18 18 18 18 18 18 18 18 18 18 18 18 18 18 18 18 18 18 18 18 18 18 18
20 20 20 20 19 19 19 19 19 19 19 19 19 19 19 18 18 19 19 18 18 18 18 18 18 18 18 18 18 18 18 18 18 18 18 17 18 18 18 17 17 17 17
20 20 20 20 19 19 19 19 19 19 19 19 19 19 19 19 18 18 18 18 18 18 18 18 18 18 18 18 18 17 17 17 17 18 18 17 17 17 17 17 17 17 17
20 20 20 19 19 19 19 19 19 19 19 19 19 19 19 18 18 19 18 18 18 18 18 18 18 18 18 18 18 18 18 17 17 18 17 17 17 17 17 17 17 17 17
20 20 20 20 19 19 19 19 19 19 19 19 19 19 18 18 18 18 18 18 18 18 18 18 18 18 18 18 18 18 18 17 17 17 17 17 17 17 17 17 17 17 17
20 20 20 20 19 19 19 19 19 19 19 19 18 18 18 18 18 18 18 18 18 18 18 18 18 18 18 18 18 18 18 17 18 17 17 17 17 17 17 17 17 17 17
20 20 20 20 19 19 19 19 19 19 19 19 18 18 18 18 18 18 18 18 18 18 18 18 18 18 18 18 18 18 18 17 17 17 17 17 17 17 17 17 17 17 17
20 20 20 20 19 19 19 19 19 19 19 18 18 18 18 18 18 18 18 18 18 18 18 18 18 18 18 18 18 18 18 18 17 17 17 17 17 17 17 17 17 17 17
20 20 20 20 19 19 19 19 19 19 19 18 18 18 18 18 18 18 18 18 18 18 18 18 18 18 18 18 18 18 18 17 17 17 17 17 17 17 17 17 17 17 17
20 20 20 20 19 19 19 19 19 19 18 18 18 18 18 18 18 18 18 18 18 18 18 18 18 18 18 18 18 18 18 18 17 17 17 17 17 17 17 17 17 17 17
20 20 20 20 19 19 19 19 19 19 19 18 18 18 18 18 18 18 18 18 18 18 18 18 18 18 18 17 17 17 17 17 17 17 17 17 17 17 17 17 17 17 17
20 20 20 20 19 19 19 19 19 19 18 18 18 18 18 18 18 18 18 18 18 18 18 18 18 18 17 17 17 17 17 17 17 17 17 17 17 17 17 17 17 17 17
20 20 20 20 19 19 19 19 19 19 19 19 19 18 18 18 18 18 18 18 18 18 18 18 18 17 17 17 17 17 17 17 17 17 17 17 17 17 17 17 17 17 17
20 20 20 20 20 19 19 19 19 19 19 19 19 18 18 18 18 18 18 18 18 18 18 18 18 18 17 17 17 17 17 17 17 17 17 17 17 17 17 17 17 17 17
21 20 20 20 20 19 19 19 19 19 19 19 19 19 18 18 18 18 18 18 18 18 18 18 18 17 17 17 17 17 17 17 17 17 17 17 17 17 17 17 17 17 17
21 20 20 20 20 20 19 19 19 19 19 19 19 19 19 18 18 18 18 18 18 18 18 18 18 17 17 17 17 17 17 17 17 17 17 17 17 17 17 17 17 17 17
21 21 20 20 20 20 19 19 19 19 19 19 19 19 19 18 18 18 18 18 18 18 18 18 18 18 17 17 17 17 17 17 17 17 17 17 17 17 17 17 17 17 17
21 21 21 20 20 20 19 19 19 19 19 19 19 19 19 18 18 18 18 18 18 18 18 18 18 18 18 17 17 17 17 17 17 17 17 17 17 17 17 17 17 17 17
22 21 21 21 20 20 20 19 19 19 19 19 19 19 19 18 18 18 18 18 18 18 18 18 18 18 18 18 17 18 17 17 17 17 17 17 17 17 17 17 17 17 17
22 22 21 21 21 20 20 20 19 19 19 19 19 19 19 18 18 18 18 18 18 18 18 18 18 18 18 18 18 18 18 18 17 17 17 17 17 17 17 17 17 17 17
22 22 21 21 21 20 20 20 19 19 19 19 19 19 18 18 18 18 18 18 18 18 18 18 18 18 18 18 18 18 18 18 18 17 17 17 17 17 17 17 17 17 17
Wind_Speed
2 3 8 10 10 10 11 11 12 12 12 12 12 13 13 13 13 14 14 14 14 15 14 14 15 15 14 15 15 15 15 15 14 14 13 13 13 12 12 13 12 11 13
6 6 9 10 10 10 10 10 11 11 12 12 12 13 13 13 13 14 14 13 14 14 14 14 14 14 14 14 14 15 14 14 14 13 12 11 12 12 11 11 11 11 13
7 7 9 10 10 10 10 10 10 10 11 12 12 12 12 12 13 13 13 13 13 13 13 13 13 13 13 14 13 14 14 14 14 13 11 9 11 11 11 11 12 12 12
8 8 10 11 10 10 10 9 10 10 10 11 11 11 11 11 12 12 12 12 12 12 12 12 12 12 12 12 13 13 14 14 14 13 9 9 10 11 11 11 12 12 12
7 8 10 11 10 10 9 9 9 10 10 10 10 11 11 11 11 11 11 11 11 11 11 11 11 11 11 11 12 12 13 13 13 11 9 9 9 11 11 11 11 12 11
6 8 10 10 10 9 9 9 9 9 9 9 9 10 10 10 10 10 10 11 11 11 11 11 11 11 10 11 11 12 12 13 12 10 10 9 9 11 11 11 12 12 11
6 6 9 10 9 9 9 8 8 8 8 9 9 9 9 10 10 10 10 10 10 10 10 10 10 10 10 10 10 11 12 13 10 10 9 9 10 11 10 10 11 11 11
7 6 7 9 9 8 8 8 7 7 7 8 9 8 9 9 9 9 9 9 9 10 10 10 10 10 10 10 10 11 11 12 10 10 9 10 11 11 10 9 10 10 11
7 6 5 6 7 7 8 8 7 7 6 8 10 9 9 9 8 8 8 9 9 9 10 10 9 9 9 9 10 10 11 12 10 9 9 9 11 11 10 9 10 10 11
5 5 4 4 5 5 6 7 6 7 7 9 10 9 8 8 8 8 8 8 9 9 9 9 9 9 9 9 9 10 12 11 8 9 8 9 11 10 11 10 10 10 10
5 3 3 3 4 5 6 6 5 6 6 7 8 8 7 6 6 6 7 8 8 8 8 9 9 9 9 9 10 11 11 7 8 8 8 10 11 10 10 9 9 10 10
4 3 3 3 3 4 5 5 4 4 4 4 5 6 5 4 4 5 7 7 7 6 6 8 8 9 8 6 7 9 7 8 8 7 8 10 11 11 10 9 9 9 9
4 4 3 3 3 4 3 4 3 3 3 3 4 4 4 3 3 4 4 4 4 5 3 5 6 5 5 5 5 6 7 8 7 7 9 11 11 11 10 9 9 8 9
4 4 3 3 3 4 4 3 4 3 3 3 3 4 4 2 2 3 3 3 3 3 3 4 4 4 4 5 6 6 7 6 6 6 8 11 12 11 10 8 8 8 8
5 4 3 4 4 3 3 3 3 3 3 3 3 4 5 4 3 3 3 3 3 3 4 4 4 4 4 4 5 6 6 7 7 6 7 11 12 11 10 9 9 8 8
5 4 3 4 4 4 3 3 3 4 4 3 3 4 5 5 4 3 3 3 3 4 5 5 4 4 3 3 3 4 5 6 6 7 7 9 11 11 11 10 9 9 9
6 5 5 4 4 4 3 3 4 3 4 3 3 4 5 5 5 4 3 3 3 5 6 5 4 3 3 3 3 3 3 4 6 6 7 7 8 10 11 10 10 9 9
6 5 5 5 4 4 3 3 3 4 4 3 3 4 4 5 6 5 4 3 3 5 4 4 3 3 2 2 2 2 2 2 4 5 7 7 7 7 9 10 10 10 9
6 6 5 4 4 4 4 3 3 4 3 3 3 3 4 5 6 5 4 3 4 4 3 4 3 3 3 2 2 2 2 2 2 4 5 6 7 7 7 9 10 10 10
6 6 5 4 4 4 3 3 2 2 2 2 2 3 4 4 5 6 4 4 4 4 3 3 3 2 3 3 2 1 1 2 2 3 4 5 6 8 8 7 8 8 11
6 6 5 5 4 3 2 2 2 2 2 1 1 3 4 4 5 5 4 3 3 3 3 4 3 3 2 2 2 1 2 1 3 3 3 4 5 6 7 7 7 7 7
8 7 6 5 5 4 3 2 2 3 2 2 1 2 3 4 5 5 4 3 3 3 3 3 3 2 2 2 3 2 1 3 2 2 2 4 4 4 5 7 7 7 7
9 8 7 5 5 4 4 3 3 3 2 1 1 1 1 3 4 5 5 4 4 4 4 4 4 4 3 2 2 3 2 2 1 2 2 2 3 3 4 5 6 8 8
10 8 7 6 6 5 5 5 5 4 3 2 1 1 1 2 3 4 4 4 4 4 4 4 4 3 4 3 2 2 3 4 3 1 2 2 2 4 4 4 5 6 7
10 9 8 7 6 5 5 5 5 3 2 1 1 1 1 0 2 3 4 3 3 3 3 3 3 4 4 4 3 1 1 1 2 3 2 2 1 2 4 4 4 5 7
9 8 8 7 6 5 5 5 5 5 4 3 2 2 1 0 1 1 2 2 2 3 3 3 3 3 3 4 3 2 2 2 2 3 3 2 2 2 2 3 4 5 6
Wind_Direction
175 166 132 119 111 105 102 102 102 104 108 114 119 123 126 130 131 133 135 138 139 140 141 144 147 147 148 148 147 145 144 143 143 144 146 146 145 143 141 139 137 133 133
161 153 133 123 116 110 108 108 108 109 110 112 116 120 124 128 133 137 139 142 143 145 147 149 151 153 153 152 151 150 149 147 146 144 145 149 149 146 143 142 140 136 137
145 148 136 127 120 116 114 113 113 112 113 115 116 119 122 127 133 137 139 142 145 146 149 151 153 156 157 158 157 155 151 150 148 148 147 145 147 148 148 146 145 142 143
138 143 137 132 127 121 119 118 115 118 119 119 120 121 124 127 132 137 141 144 148 151 154 156 157 159 161 163 163 161 158 156 155 154 146 144 150 154 152 152 153 152 152
131 139 139 137 132 126 122 123 122 123 124 124 125 128 131 132 136 142 146 149 153 158 159 160 161 162 164 165 167 165 162 160 161 156 147 146 150 159 158 158 161 159 158
134 142 142 135 135 133 130 128 129 130 131 132 132 134 136 138 141 144 150 155 159 162 164 164 165 166 165 163 165 164 162 162 159 149 147 149 150 157 165 165 165 165 162
138 147 148 140 138 139 139 138 138 136 138 139 141 143 143 143 146 147 150 155 161 165 168 167 168 167 166 166 166 165 165 165 153 148 154 157 159 162 163 165 166 167 166
144 148 151 149 146 147 147 146 147 145 145 150 151 150 150 148 146 150 153 155 161 164 166 169 171 172 172 173 171 169 167 163 156 151 152 159 164 165 166 165 169 173 173
144 144 149 157 154 155 158 155 148 147 142 146 151 151 152 152 153 157 160 160 160 162 167 172 176 177 173 173 173 170 165 162 145 145 154 159 165 168 171 171 174 178 177
135 141 153 160 164 165 162 158 153 140 132 138 144 147 152 160 164 168 168 165 163 163 167 172 178 180 172 171 171 165 161 157 145 143 148 159 165 172 176 177 180 181 180
130 144 151 156 170 176 164 153 152 145 141 138 141 146 153 162 166 171 170 166 165 166 169 170 176 177 170 168 165 160 157 145 143 145 152 164 167 171 174 177 181 179 182
141 150 150 152 155 162 150 141 146 146 150 153 154 157 166 168 169 161 165 167 165 166 171 171 173 171 165 162 162 160 146 145 146 152 161 168 169 171 174 176 178 182 185
153 143 140 148 146 139 131 135 147 156 154 153 161 167 164 158 156 147 150 159 157 159 162 161 168 162 162 160 149 151 151 151 154 163 171 171 173 175 175 175 178 183 186
130 131 127 123 124 130 132 134 144 142 136 139 158 159 146 131 124 124 127 140 142 148 137 134 139 144 148 155 149 146 148 148 156 167 178 176 178 180 180 180 181 186 190
130 124 122 109 116 121 121 131 129 131 129 137 152 154 145 132 128 131 129 135 136 143 137 128 130 137 141 143 149 151 154 159 163 170 179 182 182 184 187 188 188 191 195
142 134 126 109 113 113 115 119 125 135 143 137 140 143 140 138 130 128 126 130 133 138 141 134 134 131 131 132 138 146 158 164 165 170 177 184 188 192 196 197 197 199 202
150 143 140 129 115 107 108 119 122 131 136 128 130 132 132 140 139 135 129 128 134 138 132 126 119 118 124 130 141 148 152 166 170 176 178 183 192 198 201 202 203 207 210
140 141 148 137 126 123 116 113 114 115 121 125 133 133 138 145 149 143 138 141 138 131 129 127 127 127 130 139 159 179 160 161 174 181 181 184 191 200 205 206 208 211 214
146 142 138 129 132 134 125 116 115 114 115 128 131 137 145 148 147 142 144 149 136 128 130 140 138 145 144 154 170 183 195 189 193 192 185 190 192 197 205 211 214 217 219
145 139 138 130 133 130 116 103 96 97 98 108 122 135 140 142 142 138 134 140 139 133 136 139 145 149 158 168 164 165 214 219 206 204 205 197 195 202 208 213 218 226 225
147 143 145 141 146 131 115 117 117 127 129 115 137 140 141 141 137 138 136 139 139 146 160 156 149 151 168 154 119 61 358 277 225 219 208 197 202 204 201 205 211 216 223
162 159 156 153 149 148 151 149 140 136 141 151 160 129 133 140 148 149 149 151 150 153 157 159 151 161 193 168 149 133 12 349 325 238 211 210 213 199 204 211 207 210 214
169 169 165 161 153 154 142 120 104 83 62 60 81 110 160 155 154 158 164 164 161 164 177 185 177 174 195 219 184 162 165 215 276 311 253 219 203 201 210 204 203 207 209
177 169 162 161 158 157 148 140 139 139 152 183 180 175 165 157 156 163 162 170 170 174 182 197 191 188 181 205 243 220 193 173 175 247 305 261 221 214 216 209 205 208 209
173 169 166 161 163 163 156 154 148 145 169 158 136 140 150 163 171 170 171 160 166 180 190 199 194 197 196 199 210 217 206 189 173 172 232 271 283 244 222 208 203 207 208
169 168 165 163 173 173 164 156 154 163 170 155 156 169 199 254 265 224 187 181 184 192 197 200 200 203 206 206 204 198 189 187 196 180 201 219 238 263 240 218 207 206 205
Height
1517 1516 1515 1514 1513 1513 1512 1511 1511 1511 1511 1511 1512 1513 1514 1515 1516 1517 1518 1520 1522 1523 1525 1526 1528 1530 1531 1533 1534 1536 1537 1539 1540 1542 1544 1545 1547 1548 1549 1550 1551 1552 1553
1517 1516 1516 1515 1514 1514 1513 1512 1512 1512 1512 1512 1513 1514 1515 1516 1517 1518 1519 1521 1522 1524 1525 1527 1528 1530 1532 1533 1534 1536 1538 1539 1541 1542 1544 1545 1547 1548 1550 1550 1551 1552 1553
1517 1517 1517 1516 1515 1515 1514 1513 1513 1513 1513 1513 1514 1515 1516 1517 1518 1519 1520 1521 1523 1524 1526 1527 1528 1530 1532 1533 1534 1536 1538 1539 1541 1542 1544 1545 1546 1548 1549 1551 1552 1552 1553
1518 1518 1517 1517 1516 1516 1515 1514 1514 1514 1514 1514 1515 1516 1517 1517 1518 1519 1521 1522 1523 1524 1526 1527 1529 1530 1531 1533 1534 1536 1538 1539 1541 1542 1543 1544 1546 1548 1549 1550 1551 1552 1553
1519 1519 1518 1518 1517 1517 1516 1515 1515 1515 1515 1515 1516 1516 1517 1518 1519 1520 1521 1522 1523 1525 1526 1527 1529 1530 1531 1533 1534 1536 1537 1539 1541 1542 1543 1544 1546 1548 1549 1550 1551 1552 1553
1520 1519 1519 1519 1518 1517 1517 1516 1516 1515 1515 1516 1516 1517 1518 1519 1520 1521 1522 1523 1524 1525 1526 1527 1529 1530 1531 1533 1534 1536 1537 1539 1541 1542 1543 1545 1546 1547 1549 1549 1551 1552 1553
1520 1520 1520 1520 1519 1518 1517 1517 1516 1516 1515 1515 1516 1517 1518 1519 1520 1521 1522 1523 1524 1524 1526 1527 1529 1530 1531 1533 1534 1536 1537 1539 1540 1542 1543 1544 1546 1547 1548 1549 1550 1551 1552
1521 1521 1521 1520 1520 1519 1518 1517 1517 1516 1514 1514 1515 1517 1519 1520 1521 1522 1522 1523 1524 1524 1525 1527 1528 1529 1531 1533 1534 1536 1537 1539 1540 1542 1543 1544 1545 1547 1547 1548 1549 1550 1551
1522 1522 1521 1521 1520 1519 1519 1518 1517 1515 1512 1511 1513 1517 1519 1520 1521 1522 1522 1523 1524 1524 1525 1526 1528 1529 1531 1532 1534 1536 1537 1539 1540 1541 1543 1544 1545 1546 1547 1547 1548 1549 1550
1523 1523 1522 1522 1521 1520 1520 1519 1518 1516 1513 1512 1514 1517 1519 1520 1521 1522 1522 1523 1524 1524 1525 1526 1527 1529 1530 1532 1534 1536 1538 1539 1540 1541 1542 1543 1544 1545 1546 1547 1548 1548 1549
1524 1524 1523 1522 1521 1521 1520 1520 1519 1518 1517 1516 1517 1519 1520 1520 1521 1522 1522 1523 1523 1524 1524 1525 1526 1528 1530 1532 1534 1536 1538 1539 1540 1541 1542 1543 1544 1545 1545 1546 1547 1548 1549
1524 1524 1524 1523 1522 1521 1521 1521 1520 1520 1519 1519 1520 1521 1521 1521 1521 1521 1522 1523 1523 1524 1524 1525 1526 1528 1530 1532 1534 1536 1537 1539 1540 1542 1542 1543 1544 1544 1545 1546 1546 1547 1548
1524 1524 1524 1523 1522 1522 1521 1521 1521 1521 1521 1521 1522 1522 1522 1521 1521 1522 1522 1523 1524 1524 1524 1525 1526 1528 1530 1532 1534 1536 1538 1539 1540 1541 1542 1543 1543 1544 1545 1545 1546 1547 1548
1525 1525 1524 1524 1523 1523 1523 1522 1523 1522 1522 1522 1522 1523 1522 1522 1522 1522 1523 1523 1524 1525 1525 1526 1527 1529 1531 1533 1535 1536 1538 1539 1540 1541 1542 1543 1543 1544 1545 1545 1546 1547 1547
1525 1525 1525 1524 1524 1524 1524 1523 1523 1523 1523 1523 1523 1524 1524 1523 1523 1523 1524 1525 1525 1526 1526 1527 1528 1530 1532 1534 1535 1536 1537 1539 1540 1541 1542 1543 1543 1544 1544 1545 1546 1546 1547
1525 1525 1525 1525 1525 1525 1525 1524 1524 1525 1525 1525 1525 1525 1525 1525 1524 1525 1525 1526 1527 1527 1528 1529 1530 1531 1532 1534 1535 1536 1538 1539 1540 1540 1541 1542 1543 1543 1544 1545 1545 1545 1546
1525 1526 1526 1526 1526 1526 1526 1526 1525 1525 1525 1525 1525 1526 1526 1526 1526 1526 1527 1527 1528 1529 1530 1530 1531 1532 1533 1534 1535 1536 1537 1538 1539 1540 1541 1542 1542 1543 1543 1544 1544 1545 1545
1525 1526 1526 1526 1526 1526 1526 1526 1526 1526 1526 1526 1526 1526 1527 1527 1527 1527 1528 1528 1529 1530 1531 1531 1532 1533 1534 1534 1535 1536 1537 1538 1539 1539 1540 1541 1542 1542 1543 1543 1544 1544 1544
1525 1526 1526 1527 1526 1526 1527 1527 1527 1527 1526 1527 1527 1527 1527 1528 1528 1528 1528 1529 1530 1531 1532 1532 1533 1534 1534 1535 1535 1536 1537 1537 1538 1539 1540 1540 1541 1542 1542 1542 1543 1543 1543
1526 1526 1527 1527 1527 1527 1526 1526 1526 1526 1527 1527 1527 1528 1528 1528 1529 1529 1529 1530 1531 1532 1532 1533 1533 1534 1535 1535 1536 1536 1537 1537 1538 1538 1539 1539 1540 1541 1541 1542 1542 1542 1542
1526 1526 1527 1527 1527 1527 1526 1526 1526 1526 1527 1527 1528 1528 1529 1529 1529 1530 1530 1531 1532 1532 1532 1533 1534 1534 1535 1536 1536 1536 1537 1537 1537 1537 1538 1538 1539 1540 1540 1540 1540 1540 1541
1525 1525 1526 1526 1527 1527 1527 1527 1527 1527 1527 1528 1528 1528 1529 1529 1530 1530 1531 1531 1532 1532 1532 1533 1534 1534 1534 1535 1535 1535 1536 1537 1537 1537 1537 1537 1538 1538 1538 1539 1539 1539 1539
1524 1525 1525 1526 1527 1527 1528 1528 1528 1528 1528 1528 1529 1529 1529 1530 1530 1531 1531 1531 1531 1532 1532 1533 1533 1534 1534 1534 1535 1535 1535 1535 1535 1536 1536 1537 1537 1537 1537 1537 1537 1537 1537
1523 1524 1525 1526 1526 1527 1527 1528 1528 1528 1529 1529 1529 1529 1529 1530 1530 1531 1531 1531 1530 1531 1532 1532 1533 1533 1533 1533 1534 1534 1534 1534 1534 1534 1535 1535 1535 1535 1535 1535 1536 1536 1535
1522 1524 1525 1526 1526 1527 1528 1528 1529 1529 1529 1530 1530 1530 1530 1530 1530 1530 1531 1531 1531 1531 1531 1532 1532 1532 1532 1532 1532 1532 1533 1533 1533 1533 1532 1533 1533 1534 1534 1534 1534 1534 1534
1522 1523 1524 1525 1526 1527 1528 1528 1529 1529 1529 1530 1530 1529 1530 1530 1530 1530 1530 1530 1530 1530 1530 1531 1531 1531 1531 1531 1531 1531 1531 1531 1531 1531 1531 1531 1531 1532 1532 1532 1532 1532 1532